DW4993 Weather Reports


time (UTC)temp
C
wind
direction
speed
KPH
gust
KPH
rain 1hr
cm
rain 24hr
cm
rain mn
cm
humidity
%
barometer
mb
20260507051805 11 126 0.0 0.0 0.00 0.00 0.00 43 1007.3
20260507051305 11 126 0.0 0.0 0.00 0.00 0.00 42 1007.3
20260507050805 11 126 0.0 0.0 0.00 0.00 0.00 42 1007.4
20260507050306 11 126 0.0 0.0 0.00 0.00 0.00 42 1007.3
20260507045806 12 126 3.2 4.8 0.00 0.00 0.00 42 1007.3
20260507044805 11 133 0.0 0.0 0.00 0.00 0.00 43 1007.2
20260507044305 11 133 0.0 0.0 0.00 0.00 0.00 43 1007.1
20260507043806 11 133 0.0 0.0 0.00 0.00 0.00 43 1007.1
20260507043305 12 133 0.0 0.0 0.00 0.00 0.00 43 1007.0
20260507042806 12 133 0.0 0.0 0.00 0.00 0.00 43 1006.9
20260507042306 12 133 0.0 1.6 0.00 0.00 0.00 43 1006.7
20260507041805 12 133 0.0 3.2 0.00 0.00 0.00 44 1006.5
20260507041305 12 94 0.0 1.6 0.00 0.00 0.00 44 1006.4
20260507040806 12 94 0.0 1.6 0.00 0.00 0.00 45 1006.4
20260507040305 12 94 0.0 0.0 0.00 0.00 0.00 45 1006.4
20260507035805 12 94 0.0 0.0 0.00 0.00 0.00 45 1006.4
20260507035306 13 94 0.0 0.0 0.00 0.00 0.00 45 1006.4
20260507034806 13 94 0.0 3.2 0.00 0.00 0.00 44 1006.2
20260507034305 13 94 1.6 3.2 0.00 0.00 0.00 44 1006.0
20260507033804 13 94 0.0 3.2 0.00 0.00 0.00 43 1005.9
20260507033305 13 94 1.6 4.8 0.00 0.00 0.00 43 1005.9
20260507032806 13 94 1.6 4.8 0.00 0.00 0.00 43 1005.9
20260507032306 14 94 1.6 4.8 0.00 0.00 0.00 42 1005.7
20260507031805 14 95 1.6 4.8 0.00 0.00 0.00 42 1005.7
20260507031307 14 91 4.8 9.7 0.00 0.00 0.00 41 1005.6
20260507030805 15 26 3.2 8.0 0.00 0.00 0.00 40 1005.6
20260507030305 15 121 3.2 8.0 0.00 0.00 0.00 38 1005.6
20260507025306 15 95 6.4 16.1 0.00 0.00 0.00 37 1005.5
20260507024805 16 111 8.0 20.9 0.00 0.00 0.00 35 1005.4
20260507023805 16 94 8.0 12.9 0.00 0.00 0.00 33 1005.3
20260507023305 16 72 11.3 22.5 0.00 0.00 0.00 32 1005.2
20260507022805 17 82 9.7 19.3 0.00 0.00 0.00 31 1005.0
20260507022306 17 73 8.0 20.9 0.00 0.00 0.00 30 1004.8
20260507021805 18 74 8.0 19.3 0.00 0.00 0.00 29 1004.8
20260507021305 18 65 4.8 16.1 0.00 0.00 0.00 30 1004.7
20260507020305 18 77 4.8 20.9 0.00 0.00 0.00 30 1004.5
20260507014804 18 54 8.0 14.5 0.00 0.00 0.00 31 1004.4
20260507014305 18 48 6.4 14.5 0.00 0.00 0.00 30 1004.4
20260507013805 18 44 8.0 22.5 0.00 0.00 0.00 30 1004.5
20260507013305 18 29 6.4 20.9 0.00 0.00 0.00 29 1004.5
20260507012805 18 47 4.8 12.9 0.00 0.00 0.00 29 1004.5
20260507012306 18 31 3.2 14.5 0.00 0.00 0.00 29 1004.5
20260507010305 19 46 6.4 19.3 0.00 0.00 0.00 29 1004.6
20260507004805 19 50 4.8 16.1 0.00 0.00 0.00 30 1004.6
20260507004305 19 358 8.0 16.1 0.00 0.00 0.00 29 1004.6
20260507003804 19 9 8.0 20.9 0.00 0.00 0.00 30 1004.6
20260507003306 19 47 8.0 19.3 0.00 0.00 0.00 31 1004.5
20260507002805 20 10 12.9 27.4 0.00 0.00 0.00 30 1004.4
20260507002306 20 9 14.5 40.2 0.00 0.00 0.00 29 1004.3
20260507001804 21 16 3.2 8.0 0.00 0.00 0.00 27 1004.1
20260507001306 21 31 1.6 3.2 0.00 0.00 0.00 27 1004.0
20260507000805 21 31 1.6 8.0 0.00 0.00 0.00 26 1003.8
20260507000306 21 26 3.2 8.0 0.00 0.00 0.00 26 1003.8
20260506235806 21 19 3.2 8.0 0.00 0.00 0.00 26 1003.7
20260506234805 21 19 1.6 4.8 0.00 0.00 0.00 27 1003.7
20260506233805 20 356 1.6 4.8 0.00 0.00 0.00 28 1003.8
20260506233305 20 356 1.6 3.2 0.00 0.00 0.00 30 1003.7
20260506232805 20 356 1.6 3.2 0.00 0.00 0.00 30 1003.8
20260506231806 20 8 4.8 19.3 0.00 0.00 0.00 30 1004.3
20260506230805 21 287 4.8 24.1 0.00 0.00 0.00 28 1004.3
20260506230305 21 30 4.8 12.9 0.00 0.00 0.00 25 1004.4
20260506225806 22 17 4.8 12.9 0.00 0.00 0.00 24 1004.3
20260506225306 22 75 3.2 9.7 0.00 0.00 0.00 24 1004.2
20260506224805 22 44 1.6 4.8 0.00 0.00 0.00 23 1004.2
20260506224305 22 30 3.2 8.0 0.00 0.00 0.00 24 1004.3
20260506223806 22 72 1.6 8.0 0.00 0.00 0.00 23 1004.4
20260506223305 22 50 4.8 14.5 0.00 0.00 0.00 24 1004.5
20260506222804 22 21 1.6 8.0 0.00 0.00 0.00 23 1004.5
20260506222306 22 71 6.4 16.1 0.00 0.00 0.00 22 1004.6
20260506221805 23 33 4.8 8.0 0.00 0.00 0.00 23 1004.6
20260506221304 23 28 8.0 19.3 0.00 0.00 0.00 23 1004.7
20260506220805 23 53 4.8 16.1 0.00 0.00 0.00 22 1004.8
20260506220305 22 52 4.8 16.1 0.00 0.00 0.00 25 1004.8
20260506215805 22 35 3.2 16.1 0.00 0.00 0.00 24 1004.8
20260506214805 22 6 4.8 12.9 0.00 0.00 0.00 24 1004.9
20260506214305 22 23 3.2 9.7 0.00 0.00 0.00 24 1005.0
20260506213805 22 10 3.2 12.9 0.00 0.00 0.00 23 1005.0
20260506213305 22 53 6.4 12.9 0.00 0.00 0.00 23 1005.2
20260506212805 22 43 8.0 19.3 0.00 0.00 0.00 24 1005.3
20260506212306 22 26 4.8 9.7 0.00 0.00 0.00 25 1005.3
20260506211805 22 26 1.6 8.0 0.00 0.00 0.00 24 1005.4
20260506211305 22 3 3.2 19.3 0.00 0.00 0.00 24 1005.5
20260506210306 22 4 8.0 14.5 0.00 0.00 0.00 24 1005.6
20260506205805 22 79 4.8 11.3 0.00 0.00 0.00 23 1005.6
20260506205306 22 37 3.2 12.9 0.00 0.00 0.00 23 1005.7
20260506204306 22 36 4.8 14.5 0.00 0.00 0.00 24 1005.8
20260506203804 22 60 4.8 14.5 0.00 0.00 0.00 23 1005.8
20260506203305 22 37 4.8 11.3 0.00 0.00 0.00 24 1005.9
20260506202807 22 355 3.2 8.0 0.00 0.00 0.00 25 1006.0
20260506202306 22 46 1.6 4.8 0.00 0.00 0.00 23 1006.0
20260506201805 21 39 1.6 4.8 0.00 0.00 0.00 25 1006.1
20260506201305 22 40 3.2 12.9 0.00 0.00 0.00 23 1006.2
20260506200805 21 33 6.4 11.3 0.00 0.00 0.00 25 1006.3
20260506200305 21 1 4.8 9.7 0.00 0.00 0.00 25 1006.4
20260506195306 21 29 1.6 8.0 0.00 0.00 0.00 23 1006.6
20260506194805 21 358 4.8 9.7 0.00 0.00 0.00 27 1006.6
20260506194306 21 290 4.8 4.8 0.00 0.00 0.00 24 1006.6
20260506193805 21 352 3.2 8.0 0.00 0.00 0.00 24 1006.6
20260506193304 21 24 3.2 8.0 0.00 0.00 0.00 25 1006.8
20260506192805 21 18 3.2 4.8 0.00 0.00 0.00 26 1006.9
20260506192306 20 233 1.6 8.0 0.00 0.00 0.00 25 1006.9
20260506191805 20 237 1.6 4.8 0.00 0.00 0.00 24 1007.0
20260506191305 20 236 3.2 4.8 0.00 0.00 0.00 25 1007.1
20260506190805 20 202 1.6 9.7 0.00 0.00 0.00 27 1007.2
20260506190305 20 215 3.2 9.7 0.00 0.00 0.00 26 1007.3
20260506185804 20 303 0.0 4.8 0.00 0.00 0.00 26 1007.4
20260506185307 20 252 3.2 9.7 0.00 0.00 0.00 25 1007.5
20260506184805 20 235 4.8 9.7 0.00 0.00 0.00 25 1007.6
20260506184306 19 230 1.6 4.8 0.00 0.00 0.00 28 1007.6
20260506183805 19 189 3.2 8.0 0.00 0.00 0.00 27 1007.7
20260506183304 19 233 8.0 11.3 0.00 0.00 0.00 26 1007.9
20260506182307 18 230 3.2 9.7 0.00 0.00 0.00 28 1007.9
20260506181804 18 218 3.2 4.8 0.00 0.00 0.00 30 1008.1
20260506181305 17 250 3.2 8.0 0.00 0.00 0.00 29 1008.1
20260506180805 17 231 4.8 9.7 0.00 0.00 0.00 29 1008.1
20260506180306 17 191 4.8 9.7 0.00 0.00 0.00 29 1008.3
20260506175805 17 234 4.8 9.7 0.00 0.00 0.00 29 1008.3
20260506174805 16 207 3.2 9.7 0.00 0.00 0.00 31 1008.4
20260506174305 16 248 6.4 11.3 0.00 0.00 0.00 29 1008.6
20260506173804 16 206 4.8 12.9 0.00 0.00 0.00 30 1008.8
20260506173305 16 194 4.8 11.3 0.00 0.00 0.00 31 1008.9
20260506172804 15 197 6.4 12.9 0.00 0.00 0.00 31 1008.9
20260506172307 15 208 8.0 12.9 0.00 0.00 0.00 30 1009.0
20260506171805 15 221 3.2 9.7 0.00 0.00 0.00 32 1009.1
20260506171304 15 198 4.8 11.3 0.00 0.00 0.00 33 1009.2
20260506165805 14 196 4.8 11.3 0.00 0.00 0.00 32 1009.4
20260506165306 13 213 3.2 9.7 0.00 0.00 0.00 35 1009.5
20260506164804 13 216 3.2 11.3 0.00 0.00 0.00 35 1009.6
20260506164305 13 237 6.4 12.9 0.00 0.00 0.00 35 1009.7
20260506163804 13 240 8.0 11.3 0.00 0.00 0.00 35 1009.7
20260506163304 12 222 8.0 12.9 0.00 0.00 0.00 35 1009.8
20260506162805 12 213 4.8 11.3 0.00 0.00 0.00 36 1009.8
20260506162307 12 220 4.8 11.3 0.00 0.00 0.00 36 1009.9
20260506161804 12 213 4.8 9.7 0.00 0.00 0.00 38 1010.0
20260506161306 11 228 4.8 8.0 0.00 0.00 0.00 37 1010.1
20260506160805 11 228 4.8 9.7 0.00 0.00 0.00 37 1010.3
20260506160304 11 224 4.8 11.3 0.00 0.00 0.00 39 1010.4
20260506155306 11 204 4.8 9.7 0.00 0.00 0.00 39 1010.6
20260506154804 10 211 4.8 9.7 0.00 0.00 0.00 40 1010.6
20260506154304 10 211 3.2 4.8 0.00 0.00 0.00 41 1010.6
20260506153805 10 214 4.8 9.7 0.00 0.00 0.00 42 1010.7
20260506152306 8 247 8.0 12.9 0.00 0.00 0.00 43 1010.9
20260506151804 8 230 8.0 11.3 0.00 0.00 0.00 44 1010.9
20260506150805 7 240 4.8 9.7 0.00 0.00 0.00 46 1011.1
20260506150305 7 249 3.2 8.0 0.00 0.00 0.00 48 1011.2
20260506145805 7 242 4.8 8.0 0.00 0.00 0.00 48 1011.2
20260506145306 6 270 3.2 4.8 0.00 0.00 0.00 49 1011.3
20260506144804 6 243 4.8 8.0 0.00 0.00 0.00 49 1011.3
20260506143804 5 225 4.8 11.3 0.00 0.00 0.00 51 1011.5
20260506143306 5 233 4.8 14.5 0.00 0.00 0.00 51 1011.6
20260506142805 5 241 6.4 14.5 0.00 0.00 0.00 52 1011.7
20260506142306 5 235 4.8 9.7 0.00 0.00 0.00 52 1011.7
20260506141805 4 227 6.4 9.7 0.00 0.00 0.00 52 1011.8
20260506141305 4 242 3.2 4.8 0.00 0.00 0.00 53 1011.9
20260506140805 3 241 4.8 8.0 0.00 0.00 0.00 53 1012.0
20260506140305 3 264 3.2 8.0 0.00 0.00 0.00 54 1012.1
20260506135805 3 238 4.8 9.7 0.00 0.00 0.00 55 1012.2
20260506135306 3 231 3.2 9.7 0.00 0.00 0.00 55 1012.2
20260506134805 2 276 1.6 3.2 0.00 0.00 0.00 57 1012.2
20260506134305 2 276 3.2 4.8 0.00 0.00 0.00 57 1012.2
20260506133806 2 283 3.2 4.8 0.00 0.00 0.00 58 1012.2
20260506133304 2 236 3.2 4.8 0.00 0.00 0.00 60 1012.2
20260506132805 1 244 3.2 8.0 0.00 0.00 0.00 60 1012.3
20260506132307 1 243 3.2 4.8 0.00 0.00 0.00 62 1012.4
20260506131805 1 232 3.2 4.8 0.00 0.00 0.00 62 1012.3
20260506131304 1 230 1.6 4.8 0.00 0.00 0.00 63 1012.3
20260506130805 0 222 1.6 4.8 0.00 0.00 0.00 64 1012.3
20260506130305 0 222 1.6 4.8 0.00 0.00 0.00 65 1012.3
20260506125806 0 222 1.6 4.8 0.00 0.00 0.00 66 1012.4
20260506125306 0 211 1.6 3.2 0.00 0.00 0.00 66 1012.4
20260506124805 0 210 3.2 4.8 0.00 0.00 0.00 66 1012.4
20260506124304 0 210 1.6 4.8 0.00 0.00 0.00 66 1012.4
20260506123806 0 210 1.6 4.8 0.00 0.00 0.00 66 1012.4
20260506123304 0 211 0.0 3.2 0.00 0.00 0.00 66 1012.5
20260506122804 0 210 0.0 3.2 0.00 0.00 0.00 66 1012.5
20260506122306 0 210 0.0 3.2 0.00 0.00 0.00 66 1012.5
20260506121804 0 211 1.6 1.6 0.00 0.00 0.00 66 1012.5
20260506120805 0 211 1.6 4.8 0.00 0.00 0.00 65 1012.6
20260506120306 0 211 3.2 4.8 0.00 0.00 0.00 65 1012.7
20260506115804 0 211 1.6 3.2 0.00 0.00 0.00 65 1012.7
20260506115307 0 211 1.6 4.8 0.00 0.00 0.00 65 1012.8
20260506114805 0 211 1.6 4.8 0.00 0.00 0.00 65 1012.8
20260506114306 0 211 0.0 3.2 0.00 0.00 0.00 64 1012.9
20260506113805 0 211 1.6 4.8 0.00 0.00 0.00 64 1013.0
20260506113304 0 211 1.6 4.8 0.00 0.00 0.00 64 1013.1
20260506112805 0 214 1.6 4.8 0.00 0.00 0.00 64 1013.1
20260506111805 0 214 1.6 4.8 0.00 0.00 0.00 63 1013.2
20260506111305 0 214 1.6 4.8 0.00 0.00 0.00 63 1013.2
20260506110804 0 214 0.0 3.2 0.00 0.00 0.00 63 1013.3
20260506110305 0 214 1.6 3.2 0.00 0.00 0.00 62 1013.3
20260506105804 0 214 1.6 4.8 0.00 0.00 0.00 62 1013.3
20260506105305 0 214 3.2 4.8 0.00 0.00 0.00 62 1013.4
20260506104805 0 215 1.6 4.8 0.00 0.00 0.00 62 1013.3
20260506104306 0 215 1.6 4.8 0.00 0.00 0.00 62 1013.4
20260506103805 0 215 3.2 4.8 0.00 0.00 0.00 61 1013.4
20260506102806 0 219 1.6 4.8 0.00 0.00 0.00 61 1013.6
20260506102306 0 219 1.6 4.8 0.00 0.00 0.00 60 1013.7
20260506101804 0 219 1.6 4.8 0.00 0.00 0.00 60 1013.8
20260506101306 0 219 1.6 3.2 0.00 0.00 0.00 60 1014.0
20260506100806 0 219 1.6 4.8 0.00 0.00 0.00 60 1014.0
20260506095805 0 223 1.6 4.8 0.00 0.00 0.00 59 1014.1
20260506095306 0 223 3.2 4.8 0.00 0.00 0.00 59 1014.3
20260506094806 0 229 1.6 4.8 0.00 0.00 0.00 59 1014.4
20260506094304 1 231 1.6 4.8 0.00 0.00 0.00 59 1014.4
20260506093304 1 244 1.6 4.8 0.00 0.00 0.00 58 1014.6
20260506092806 1 197 3.2 9.7 0.00 0.00 0.00 58 1014.6
20260506092306 1 194 1.6 8.0 0.00 0.00 0.00 57 1014.7
20260506091805 1 215 3.2 9.7 0.00 0.00 0.00 57 1014.7
20260506091304 1 201 3.2 4.8 0.00 0.00 0.00 57 1014.8
20260506090806 1 201 3.2 8.0 0.00 0.00 0.00 57 1014.9
20260506085306 1 205 4.8 9.7 0.00 0.00 0.00 56 1015.1
20260506084805 1 196 4.8 12.9 0.00 0.00 0.00 55 1015.2
20260506084304 1 202 4.8 11.3 0.00 0.00 0.00 55 1015.2
20260506083805 1 197 4.8 12.9 0.00 0.00 0.00 55 1015.2
20260506083305 1 202 3.2 11.3 0.00 0.00 0.00 55 1015.3
20260506082805 1 208 3.2 8.0 0.00 0.00 0.00 54 1015.4
20260506082305 1 196 3.2 9.7 0.00 0.00 0.00 54 1015.4
20260506081804 1 205 3.2 8.0 0.00 0.00 0.00 54 1015.5
20260506081304 1 188 3.2 11.3 0.00 0.00 0.00 54 1015.6
20260506080806 1 202 3.2 8.0 0.00 0.00 0.00 54 1015.5
20260506080304 1 259 1.6 4.8 0.00 0.00 0.00 54 1015.7
20260506073304 2 203 1.6 4.8 0.00 0.00 0.00 53 1016.0
20260506072306 2 203 1.6 4.8 0.00 0.00 0.00 52 1016.1
20260506071805 2 203 1.6 4.8 0.00 0.00 0.00 52 1016.2
20260506071305 2 196 3.2 9.7 0.00 0.00 0.00 52 1016.1
20260506070806 2 202 1.6 8.0 0.00 0.00 0.00 51 1016.3
20260506070305 2 208 3.2 8.0 0.00 0.00 0.00 51 1016.2
20260506062305 2 203 3.2 4.8 0.00 0.00 0.00 49 1016.7
20260506061304 2 237 3.2 9.7 0.00 0.00 0.00 49 1016.7
20260506060819 2 192 4.8 11.3 0.00 0.00 0.00 49 1016.8
20260506060305 3 198 3.2 12.9 0.00 0.00 0.00 49 1016.9